Private Wetterstation Wechselburg
Wetterdaten: Samstag, 07.06.2014
Datum Zeit Temp. +2m Bodentemp. Temp.+5cm Temp. Wind Windchill X Diff Temp. Feuchte +2m Feuchte +5cm Sonnenschein Luftdruck Regen Wind Richtung Richtung Sonnenschein UV Taupunkt Windchill Windben
07.06.2014 00:00 14,9 C 25,6 C 14,8 C 14,5 C 13,6 C 0,0 C 75 % 78 % 0 % 1016,4 hPa 0,0 l/m 0,0 km/h (0 Bft) NO 45 0 min 0,0 UV-I 10,5 C 13,6 C 0,0 km/h (0 Bft)
07.06.2014 00:05 14,8 C 25,6 C 14,6 C 14,4 C 13,5 C 0,0 C 75 % 78 % 0 % 1016,4 hPa 0,0 l/m 0,0 km/h (0 Bft) NO 45 0 min 0,0 UV-I 10,4 C 13,5 C 0,0 km/h (0 Bft)
07.06.2014 00:10 14,6 C 25,6 C 14,5 C 14,2 C 13,4 C 0,0 C 75 % 79 % 0 % 1016,4 hPa 0,0 l/m 0,0 km/h (0 Bft) NO 45 0 min 0,0 UV-I 10,2 C 13,4 C 0,0 km/h (0 Bft)
07.06.2014 00:15 14,5 C 25,6 C 14,4 C 14,1 C 13,3 C 0,0 C 76 % 79 % 0 % 1016,4 hPa 0,0 l/m 0,0 km/h (0 Bft) NO 45 0 min 0,0 UV-I 10,3 C 13,3 C 0,0 km/h (0 Bft)
07.06.2014 00:20 14,5 C 25,6 C 14,5 C 14,1 C 13,2 C 0,0 C 76 % 79 % 0 % 1016,4 hPa 0,0 l/m 0,0 km/h (0 Bft) NO 45 0 min 0,0 UV-I 10,3 C 13,2 C 0,0 km/h (0 Bft)
07.06.2014 00:25 14,3 C 25,6 C 14,3 C 13,9 C 13,1 C 0,0 C 77 % 79 % 0 % 1016,4 hPa 0,0 l/m 0,0 km/h (0 Bft) NO 45 0 min 0,0 UV-I 10,3 C 13,1 C 0,0 km/h (0 Bft)
07.06.2014 00:30 14,3 C 25,6 C 14,3 C 13,9 C 13,0 C 0,0 C 77 % 79 % 0 % 1016,4 hPa 0,0 l/m 0,0 km/h (0 Bft) NO 45 0 min 0,0 UV-I 10,3 C 13,0 C 0,0 km/h (0 Bft)
07.06.2014 00:35 14,1 C 25,6 C 14,3 C 13,7 C 12,9 C 0,0 C 77 % 79 % 0 % 1016,4 hPa 0,0 l/m 0,0 km/h (0 Bft) NO 45 0 min 0,0 UV-I 10,1 C 12,9 C 0,0 km/h (0 Bft)
07.06.2014 00:40 14,0 C 25,6 C 14,1 C 13,6 C 12,9 C 0,0 C 78 % 80 % 0 % 1016,4 hPa 0,0 l/m 0,0 km/h (0 Bft) NO 45 0 min 0,0 UV-I 10,2 C 12,9 C 0,0 km/h (0 Bft)
07.06.2014 00:45 14,0 C 25,6 C 14,0 C 13,6 C 12,9 C 0,0 C 78 % 80 % 0 % 1016,4 hPa 0,0 l/m 0,0 km/h (0 Bft) NO 45 0 min 0,0 UV-I 10,2 C 12,9 C 0,0 km/h (0 Bft)
07.06.2014 00:50 14,0 C 25,6 C 14,0 C 13,6 C 12,9 C 0,0 C 79 % 80 % 0 % 1016,4 hPa 0,0 l/m 0,0 km/h (0 Bft) O-NO 67 0 min 0,0 UV-I 10,4 C 12,9 C 0,0 km/h (0 Bft)
07.06.2014 00:55 13,9 C 25,6 C 13,9 C 13,6 C 12,9 C 0,0 C 79 % 80 % 0 % 1016,4 hPa 0,0 l/m 0,0 km/h (0 Bft) O-NO 67 0 min 0,0 UV-I 10,3 C 12,9 C 0,0 km/h (0 Bft)
07.06.2014 01:00 13,9 C 25,5 C 13,8 C 13,4 C 12,5 C 0,0 C 79 % 81 % 0 % 1016,6 hPa 0,0 l/m 0,0 km/h (0 Bft) NW 315 0 min 0,0 UV-I 10,3 C 12,5 C 0,0 km/h (0 Bft)
07.06.2014 01:05 13,7 C 25,5 C 13,7 C 13,3 C 12,4 C 0,0 C 79 % 81 % 0 % 1016,6 hPa 0,0 l/m 0,0 km/h (0 Bft) N-NW 337 0 min 0,0 UV-I 10,1 C 12,4 C 0,0 km/h (0 Bft)
07.06.2014 01:10 13,6 C 25,5 C 13,7 C 13,2 C 12,4 C 0,0 C 80 % 81 % 0 % 1016,6 hPa 0,0 l/m 0,0 km/h (0 Bft) N-NW 337 0 min 0,0 UV-I 10,2 C 12,4 C 0,0 km/h (0 Bft)
07.06.2014 01:15 13,6 C 25,5 C 13,6 C 13,2 C 12,3 C 0,0 C 80 % 81 % 0 % 1016,6 hPa 0,0 l/m 0,0 km/h (0 Bft) N-NW 337 0 min 0,0 UV-I 10,2 C 12,3 C 0,0 km/h (0 Bft)
07.06.2014 01:20 13,5 C 25,5 C 13,7 C 13,0 C 12,1 C 0,0 C 80 % 81 % 0 % 1016,5 hPa 0,0 l/m 0,0 km/h (0 Bft) S 180 0 min 0,0 UV-I 10,1 C 12,1 C 0,0 km/h (0 Bft)
07.06.2014 01:25 13,4 C 25,5 C 13,6 C 13,0 C 12,1 C 0,0 C 80 % 81 % 0 % 1016,5 hPa 0,0 l/m 0,0 km/h (0 Bft) S 180 0 min 0,0 UV-I 10,0 C 12,1 C 0,0 km/h (0 Bft)
07.06.2014 01:30 13,2 C 25,5 C 13,4 C 12,8 C 12,0 C 0,0 C 80 % 82 % 0 % 1016,5 hPa 0,0 l/m 0,0 km/h (0 Bft) S 180 0 min 0,0 UV-I 9,8 C 12,0 C 0,0 km/h (0 Bft)
07.06.2014 01:35 13,3 C 25,5 C 13,5 C 12,8 C 11,9 C 0,0 C 80 % 82 % 0 % 1016,5 hPa 0,0 l/m 0,0 km/h (0 Bft) W 270 0 min 0,0 UV-I 9,9 C 11,9 C 0,0 km/h (0 Bft)
07.06.2014 01:40 13,0 C 25,5 C 13,2 C 12,6 C 11,7 C 0,0 C 81 % 82 % 0 % 1016,5 hPa 0,0 l/m 0,0 km/h (0 Bft) W 270 0 min 0,0 UV-I 9,8 C 11,7 C 0,0 km/h (0 Bft)
07.06.2014 01:45 13,0 C 25,6 C 13,2 C 12,5 C 11,6 C 0,0 C 81 % 82 % 0 % 1016,5 hPa 0,0 l/m 0,0 km/h (0 Bft) W-SW 247 0 min 0,0 UV-I 9,8 C 11,6 C 0,0 km/h (0 Bft)
07.06.2014 01:50 12,8 C 25,6 C 13,1 C 12,4 C 11,5 C 0,0 C 81 % 82 % 0 % 1016,5 hPa 0,0 l/m 0,0 km/h (0 Bft) W 270 0 min 0,0 UV-I 9,6 C 11,5 C 0,0 km/h (0 Bft)
07.06.2014 01:55 12,8 C 25,6 C 13,1 C 12,3 C 11,4 C 0,0 C 81 % 82 % 0 % 1016,5 hPa 0,0 l/m 0,0 km/h (0 Bft) W 270 0 min 0,0 UV-I 9,6 C 11,4 C 0,0 km/h (0 Bft)
07.06.2014 02:00 12,6 C 25,6 C 13,0 C 12,2 C 11,3 C 0,0 C 81 % 82 % 0 % 1016,2 hPa 0,0 l/m 0,0 km/h (0 Bft) W 270 0 min 0,0 UV-I 9,4 C 11,3 C 0,0 km/h (0 Bft)
07.06.2014 02:05 12,7 C 25,6 C 13,1 C 12,2 C 11,3 C 0,0 C 81 % 82 % 0 % 1016,2 hPa 0,0 l/m 0,0 km/h (0 Bft) W-SW 247 0 min 0,0 UV-I 9,5 C 11,3 C 0,0 km/h (0 Bft)
07.06.2014 02:10 12,5 C 25,6 C 12,9 C 12,1 C 11,3 C 0,0 C 82 % 82 % 0 % 1016,2 hPa 0,0 l/m 0,0 km/h (0 Bft) W-SW 247 0 min 0,0 UV-I 9,5 C 11,3 C 0,0 km/h (0 Bft)
07.06.2014 02:15 12,4 C 25,6 C 12,9 C 12,1 C 11,4 C 0,0 C 82 % 82 % 0 % 1016,2 hPa 0,0 l/m 0,0 km/h (0 Bft) W-SW 247 0 min 0,0 UV-I 9,4 C 11,4 C 0,0 km/h (0 Bft)
07.06.2014 02:20 12,4 C 25,5 C 12,8 C 12,1 C 11,4 C 0,0 C 83 % 82 % 0 % 1016,3 hPa 0,0 l/m 0,0 km/h (0 Bft) W-SW 247 0 min 0,0 UV-I 9,6 C 11,4 C 0,0 km/h (0 Bft)
07.06.2014 02:25 12,3 C 25,5 C 12,8 C 12,0 C 11,4 C 0,0 C 83 % 83 % 0 % 1016,3 hPa 0,0 l/m 0,0 km/h (0 Bft) W-SW 247 0 min 0,0 UV-I 9,5 C 11,4 C 0,0 km/h (0 Bft)
07.06.2014 02:30 12,2 C 25,6 C 12,7 C 11,9 C 11,4 C 0,0 C 83 % 83 % 0 % 1016,3 hPa 0,0 l/m 0,0 km/h (0 Bft) W-SW 247 0 min 0,0 UV-I 9,4 C 11,4 C 0,0 km/h (0 Bft)
07.06.2014 02:35 12,3 C 25,5 C 12,7 C 12,0 C 11,3 C 0,0 C 83 % 83 % 0 % 1016,3 hPa 0,0 l/m 0,0 km/h (0 Bft) W-SW 247 0 min 0,0 UV-I 9,5 C 11,3 C 0,0 km/h (0 Bft)
07.06.2014 02:40 12,1 C 25,5 C 12,7 C 11,8 C 11,3 C 0,0 C 83 % 83 % 0 % 1016,3 hPa 0,0 l/m 0,0 km/h (0 Bft) SW 225 0 min 0,0 UV-I 9,3 C 11,3 C 0,0 km/h (0 Bft)
07.06.2014 02:45 12,0 C 25,5 C 12,5 C 11,7 C 11,2 C 0,0 C 83 % 83 % 0 % 1016,3 hPa 0,0 l/m 0,0 km/h (0 Bft) W-SW 247 0 min 0,0 UV-I 9,2 C 11,2 C 0,0 km/h (0 Bft)
07.06.2014 02:50 12,0 C 25,5 C 12,4 C 11,7 C 11,1 C 0,0 C 83 % 83 % 0 % 1016,3 hPa 0,0 l/m 0,0 km/h (0 Bft) NW 315 0 min 0,0 UV-I 9,2 C 11,1 C 0,0 km/h (0 Bft)
07.06.2014 02:55 11,9 C 25,5 C 12,4 C 11,6 C 10,9 C 0,0 C 84 % 83 % 0 % 1016,3 hPa 0,0 l/m 0,0 km/h (0 Bft) SW 225 0 min 0,0 UV-I 9,3 C 10,9 C 0,0 km/h (0 Bft)
07.06.2014 03:00 11,7 C 25,5 C 12,2 C 11,4 C 10,7 C 0,0 C 84 % 83 % 0 % 1016,1 hPa 0,0 l/m 0,0 km/h (0 Bft) SW 225 0 min 0,0 UV-I 9,1 C 10,7 C 0,0 km/h (0 Bft)
07.06.2014 03:05 11,6 C 25,5 C 12,3 C 11,3 C 10,6 C 0,0 C 84 % 84 % 0 % 1016,1 hPa 0,0 l/m 0,0 km/h (0 Bft) NO 45 0 min 0,0 UV-I 9,0 C 10,6 C 0,0 km/h (0 Bft)
07.06.2014 03:10 11,4 C 25,5 C 12,1 C 11,1 C 10,6 C 0,0 C 84 % 84 % 0 % 1016,1 hPa 0,0 l/m 0,0 km/h (0 Bft) O-NO 67 0 min 0,0 UV-I 8,8 C 10,6 C 0,0 km/h (0 Bft)
07.06.2014 03:15 11,4 C 25,5 C 12,1 C 11,2 C 10,7 C 0,0 C 84 % 84 % 0 % 1016,1 hPa 0,0 l/m 0,0 km/h (0 Bft) O-NO 67 0 min 0,0 UV-I 8,8 C 10,7 C 0,0 km/h (0 Bft)
07.06.2014 03:20 11,3 C 25,4 C 12,1 C 11,1 C 10,8 C 0,0 C 84 % 84 % 0 % 1016,1 hPa 0,0 l/m 0,0 km/h (0 Bft) S-SO 157 0 min 0,0 UV-I 8,7 C 10,8 C 0,0 km/h (0 Bft)
07.06.2014 03:25 11,2 C 25,4 C 12,0 C 11,1 C 10,8 C 0,0 C 84 % 84 % 0 % 1016,1 hPa 0,0 l/m 0,0 km/h (0 Bft) W-SW 247 0 min 0,0 UV-I 8,6 C 10,8 C 0,0 km/h (0 Bft)
07.06.2014 03:30 11,2 C 25,4 C 12,1 C 11,0 C 10,7 C 0,0 C 84 % 84 % 0 % 1016,1 hPa 0,0 l/m 0,0 km/h (0 Bft) O-NO 67 0 min 0,0 UV-I 8,6 C 10,7 C 0,0 km/h (0 Bft)
07.06.2014 03:35 11,1 C 25,4 C 12,1 C 11,0 C 10,8 C 0,0 C 84 % 84 % 0 % 1016,1 hPa 0,0 l/m 0,0 km/h (0 Bft) S-SW 202 0 min 0,0 UV-I 8,5 C 10,8 C 0,0 km/h (0 Bft)
07.06.2014 03:40 11,0 C 25,4 C 12,0 C 10,9 C 10,6 C 0,0 C 84 % 84 % 0 % 1016,4 hPa 0,0 l/m 0,0 km/h (0 Bft) W-SW 247 0 min 0,0 UV-I 8,4 C 10,6 C 0,0 km/h (0 Bft)
07.06.2014 03:45 11,1 C 25,4 C 11,9 C 10,9 C 10,5 C 0,0 C 84 % 84 % 0 % 1016,4 hPa 0,0 l/m 0,0 km/h (0 Bft) W-SW 247 0 min 0,0 UV-I 8,5 C 10,5 C 0,0 km/h (0 Bft)
07.06.2014 03:50 10,9 C 25,4 C 11,9 C 10,8 C 10,5 C 0,0 C 85 % 84 % 0 % 1016,4 hPa 0,0 l/m 0,0 km/h (0 Bft) O-NO 67 0 min 0,0 UV-I 8,5 C 10,5 C 0,0 km/h (0 Bft)
07.06.2014 03:55 10,8 C 25,4 C 11,9 C 10,7 C 10,4 C 0,0 C 85 % 84 % 0 % 1016,4 hPa 0,0 l/m 0,0 km/h (0 Bft) SW 225 0 min 0,0 UV-I 8,4 C 10,4 C 0,0 km/h (0 Bft)
07.06.2014 04:00 10,7 C 25,4 C 11,7 C 10,6 C 10,3 C 0,0 C 84 % 84 % 0 % 1016,2 hPa 0,0 l/m 0,0 km/h (0 Bft) W-SW 247 0 min 0,0 UV-I 8,1 C 10,3 C 0,0 km/h (0 Bft)
07.06.2014 04:05 10,7 C 25,3 C 11,6 C 10,6 C 10,3 C 0,0 C 85 % 84 % 0 % 1016,2 hPa 0,0 l/m 0,0 km/h (0 Bft) S 180 0 min 0,0 UV-I 8,3 C 10,3 C 0,0 km/h (0 Bft)
07.06.2014 04:10 10,7 C 25,3 C 11,6 C 10,5 C 10,1 C 0,0 C 85 % 84 % 0 % 1016,2 hPa 0,0 l/m 0,0 km/h (0 Bft) W-SW 247 0 min 0,0 UV-I 8,3 C 10,1 C 0,0 km/h (0 Bft)
07.06.2014 04:15 10,6 C 25,3 C 11,6 C 10,4 C 10,0 C 0,0 C 85 % 84 % 0 % 1016,2 hPa 0,0 l/m 0,0 km/h (0 Bft) W-SW 247 0 min 0,0 UV-I 8,2 C 10,0 C 0,0 km/h (0 Bft)
07.06.2014 04:20 10,4 C 25,3 C 11,6 C 10,3 C 10,0 C 0,0 C 85 % 84 % 0 % 1016,0 hPa 0,0 l/m 0,0 km/h (0 Bft) SO 135 0 min 0,0 UV-I 8,0 C 10,0 C 0,0 km/h (0 Bft)
07.06.2014 04:25 10,4 C 25,3 C 11,5 C 10,3 C 10,0 C 0,0 C 85 % 84 % 0 % 1016,0 hPa 0,0 l/m 0,0 km/h (0 Bft) O-NO 67 0 min 0,0 UV-I 8,0 C 10,0 C 0,0 km/h (0 Bft)
07.06.2014 04:30 10,3 C 25,3 C 11,5 C 10,2 C 10,0 C 0,0 C 85 % 84 % 0 % 1016,0 hPa 0,0 l/m 0,0 km/h (0 Bft) O-NO 67 0 min 0,0 UV-I 7,9 C 10,0 C 0,0 km/h (0 Bft)
07.06.2014 04:35 10,2 C 25,3 C 11,4 C 10,1 C 9,9 C 0,0 C 85 % 85 % 0 % 1016,0 hPa 0,0 l/m 0,0 km/h (0 Bft) SO 135 0 min 0,0 UV-I 7,8 C 9,9 C 0,0 km/h (0 Bft)
07.06.2014 04:40 10,2 C 25,3 C 11,4 C 10,1 C 9,9 C 0,0 C 85 % 85 % 0 % 1016,2 hPa 0,0 l/m 0,0 km/h (0 Bft) O-NO 67 0 min 0,0 UV-I 7,8 C 9,9 C 0,0 km/h (0 Bft)
07.06.2014 04:45 10,1 C 25,3 C 11,5 C 10,0 C 9,9 C 0,0 C 85 % 85 % 0 % 1016,2 hPa 0,0 l/m 0,0 km/h (0 Bft) O-NO 67 0 min 0,0 UV-I 7,7 C 9,9 C 0,0 km/h (0 Bft)
07.06.2014 04:50 10,0 C 25,3 C 11,4 C 10,0 C 9,9 C 0,0 C 85 % 85 % 0 % 1016,2 hPa 0,0 l/m 0,0 km/h (0 Bft) NO 45 0 min 0,0 UV-I 7,6 C 9,9 C 0,0 km/h (0 Bft)
07.06.2014 04:55 10,1 C 25,2 C 11,3 C 10,0 C 9,9 C 0,0 C 85 % 85 % 0 % 1016,2 hPa 0,0 l/m 0,0 km/h (0 Bft) N-NO 22 0 min 0,0 UV-I 7,7 C 9,9 C 0,0 km/h (0 Bft)
07.06.2014 05:00 9,9 C 25,2 C 11,2 C 9,9 C 9,8 C 0,0 C 85 % 85 % 0 % 1016,2 hPa 0,0 l/m 0,0 km/h (0 Bft) O-NO 67 0 min 0,0 UV-I 7,5 C 9,8 C 0,0 km/h (0 Bft)
07.06.2014 05:05 9,9 C 25,3 C 11,3 C 9,9 C 9,9 C 0,0 C 86 % 85 % 0 % 1016,2 hPa 0,0 l/m 0,0 km/h (0 Bft) SW 225 0 min 0,0 UV-I 7,7 C 9,9 C 0,0 km/h (0 Bft)
07.06.2014 05:10 9,8 C 25,2 C 11,3 C 9,9 C 9,9 C 0,1 C 86 % 85 % 3 % 1016,2 hPa 0,0 l/m 0,0 km/h (0 Bft) SO 135 0 min 0,0 UV-I 7,6 C 9,9 C 0,0 km/h (0 Bft)
07.06.2014 05:15 9,9 C 25,2 C 11,2 C 9,9 C 9,8 C 0,0 C 86 % 85 % 0 % 1016,2 hPa 0,0 l/m 0,0 km/h (0 Bft) NO 45 0 min 0,0 UV-I 7,7 C 9,8 C 0,0 km/h (0 Bft)
07.06.2014 05:20 9,7 C 25,2 C 11,1 C 9,8 C 9,8 C 0,1 C 86 % 85 % 3 % 1016,4 hPa 0,0 l/m 0,0 km/h (0 Bft) O-NO 67 0 min 0,0 UV-I 7,5 C 9,8 C 0,0 km/h (0 Bft)
07.06.2014 05:25 9,7 C 25,2 C 11,1 C 9,9 C 9,9 C 0,2 C 86 % 85 % 5 % 1016,4 hPa 0,0 l/m 0,0 km/h (0 Bft) O-NO 67 0 min 0,0 UV-I 7,5 C 9,9 C 0,0 km/h (0 Bft)
07.06.2014 05:30 9,7 C 25,2 C 11,1 C 9,9 C 9,9 C 0,2 C 86 % 85 % 5 % 1016,4 hPa 0,0 l/m 0,0 km/h (0 Bft) W 270 0 min 0,0 UV-I 7,5 C 9,9 C 0,0 km/h (0 Bft)
07.06.2014 05:35 9,6 C 25,1 C 11,1 C 9,9 C 9,9 C 0,3 C 86 % 85 % 8 % 1016,4 hPa 0,0 l/m 0,0 km/h (0 Bft) SW 225 0 min 0,0 UV-I 7,4 C 9,9 C 0,0 km/h (0 Bft)
07.06.2014 05:40 9,6 C 25,1 C 11,1 C 9,7 C 9,7 C 0,1 C 86 % 85 % 3 % 1016,1 hPa 0,0 l/m 0,0 km/h (0 Bft) W 270 0 min 0,0 UV-I 7,4 C 9,7 C 0,0 km/h (0 Bft)
07.06.2014 05:45 9,6 C 25,1 C 11,1 C 9,7 C 9,7 C 0,1 C 86 % 85 % 3 % 1016,1 hPa 0,0 l/m 0,0 km/h (0 Bft) W-SW 247 0 min 0,0 UV-I 7,4 C 9,7 C 0,0 km/h (0 Bft)
07.06.2014 05:50 9,5 C 25,1 C 11,1 C 9,7 C 9,7 C 0,2 C 86 % 85 % 5 % 1016,1 hPa 0,0 l/m 0,0 km/h (0 Bft) W 270 0 min 0,0 UV-I 7,3 C 9,7 C 0,0 km/h (0 Bft)
07.06.2014 05:55 9,5 C 25,0 C 11,1 C 9,8 C 9,8 C 0,3 C 86 % 85 % 8 % 1016,1 hPa 0,0 l/m 0,0 km/h (0 Bft) W-SW 247 0 min 0,0 UV-I 7,3 C 9,8 C 0,0 km/h (0 Bft)
07.06.2014 06:00 9,4 C 25,0 C 11,1 C 9,9 C 9,9 C 0,5 C 86 % 85 % 13 % 1016,5 hPa 0,0 l/m 0,0 km/h (0 Bft) W-SW 247 0 min 0,0 UV-I 7,2 C 9,9 C 0,0 km/h (0 Bft)
07.06.2014 06:05 9,5 C 25,0 C 11,1 C 9,9 C 9,9 C 0,4 C 86 % 85 % 11 % 1016,5 hPa 0,0 l/m 0,0 km/h (0 Bft) SW 225 0 min 0,0 UV-I 7,3 C 9,9 C 0,0 km/h (0 Bft)
07.06.2014 06:10 9,5 C 25,0 C 11,0 C 9,9 C 9,9 C 0,4 C 86 % 85 % 11 % 1016,5 hPa 0,0 l/m 0,0 km/h (0 Bft) SW 225 0 min 0,0 UV-I 7,3 C 9,9 C 0,0 km/h (0 Bft)
07.06.2014 06:15 9,5 C 25,0 C 11,1 C 10,0 C 10,0 C 0,5 C 86 % 85 % 13 % 1016,5 hPa 0,0 l/m 0,0 km/h (0 Bft) W-NW 292 0 min 0,0 UV-I 7,3 C 10,0 C 0,0 km/h (0 Bft)
07.06.2014 06:20 9,5 C 25,0 C 11,2 C 10,2 C 10,2 C 0,7 C 87 % 85 % 18 % 1016,7 hPa 0,0 l/m 0,0 km/h (0 Bft) SW 225 0 min 0,0 UV-I 7,4 C 10,2 C 0,0 km/h (0 Bft)
07.06.2014 06:25 9,5 C 25,0 C 11,3 C 10,3 C 10,3 C 0,8 C 87 % 85 % 21 % 1016,7 hPa 0,0 l/m 0,0 km/h (0 Bft) SW 225 0 min 0,0 UV-I 7,4 C 10,3 C 0,0 km/h (0 Bft)
07.06.2014 06:30 9,5 C 25,0 C 11,5 C 10,6 C 10,6 C 1,1 C 87 % 85 % 29 % 1016,7 hPa 0,0 l/m 0,0 km/h (0 Bft) O-NO 67 0 min 0,0 UV-I 7,4 C 10,6 C 0,0 km/h (0 Bft)
07.06.2014 06:35 9,6 C 24,9 C 11,5 C 10,9 C 10,9 C 1,3 C 88 % 85 % 34 % 1016,7 hPa 0,0 l/m 0,0 km/h (0 Bft) O-NO 67 0 min 0,3 UV-I 7,7 C 10,9 C 0,0 km/h (0 Bft)
07.06.2014 06:40 9,9 C 24,9 C 11,7 C 11,4 C 11,4 C 1,5 C 88 % 85 % 39 % 1016,7 hPa 0,0 l/m 0,0 km/h (0 Bft) NW 315 0 min 0,0 UV-I 8,0 C 11,4 C 0,0 km/h (0 Bft)
07.06.2014 06:45 10,0 C 24,8 C 12,0 C 11,6 C 11,6 C 1,6 C 88 % 86 % 42 % 1016,7 hPa 0,0 l/m 0,0 km/h (0 Bft) SW 225 0 min 0,0 UV-I 8,1 C 11,6 C 0,0 km/h (0 Bft)
07.06.2014 06:50 10,0 C 24,8 C 12,3 C 11,8 C 11,8 C 1,8 C 88 % 85 % 47 % 1016,7 hPa 0,0 l/m 0,0 km/h (0 Bft) W-SW 247 0 min 0,0 UV-I 8,1 C 11,8 C 0,0 km/h (0 Bft)
07.06.2014 06:55 10,1 C 24,8 C 12,5 C 12,0 C 12,0 C 1,9 C 88 % 85 % 50 % 1016,7 hPa 0,0 l/m 0,0 km/h (0 Bft) W-SW 247 0 min 0,0 UV-I 8,2 C 12,0 C 0,0 km/h (0 Bft)
07.06.2014 07:00 10,3 C 24,7 C 12,9 C 15,4 C 15,4 C 5,1 C 88 % 85 % 100 % 1016,8 hPa 0,0 l/m 0,0 km/h (0 Bft) SW 225 5 min 0,0 UV-I 8,4 C 15,4 C 0,0 km/h (0 Bft)
07.06.2014 07:05 10,4 C 24,7 C 12,9 C 17,8 C 17,8 C 7,4 C 88 % 85 % 100 % 1016,8 hPa 0,0 l/m 0,0 km/h (0 Bft) W 270 5 min 0,0 UV-I 8,5 C 17,8 C 0,0 km/h (0 Bft)
07.06.2014 07:10 10,8 C 24,7 C 13,3 C 20,7 C 20,7 C 9,9 C 89 % 84 % 100 % 1016,8 hPa 0,0 l/m 0,0 km/h (0 Bft) SW 225 5 min 0,0 UV-I 9,1 C 20,7 C 0,0 km/h (0 Bft)
07.06.2014 07:15 11,2 C 24,7 C 13,5 C 21,9 C 21,9 C 10,7 C 89 % 84 % 100 % 1016,8 hPa 0,0 l/m 0,0 km/h (0 Bft) S 180 5 min 1,4 UV-I 9,5 C 21,9 C 0,0 km/h (0 Bft)
07.06.2014 07:20 12,1 C 24,7 C 13,6 C 23,4 C 23,4 C 11,3 C 90 % 84 % 100 % 1016,8 hPa 0,0 l/m 0,0 km/h (0 Bft) SW 225 5 min 0,6 UV-I 10,5 C 23,4 C 0,0 km/h (0 Bft)
07.06.2014 07:25 12,7 C 24,7 C 13,9 C 24,5 C 24,5 C 11,8 C 89 % 84 % 100 % 1016,8 hPa 0,0 l/m 0,0 km/h (0 Bft) SW 225 5 min 0,2 UV-I 10,9 C 24,5 C 0,0 km/h (0 Bft)
07.06.2014 07:30 13,2 C 24,7 C 14,3 C 25,5 C 25,5 C 12,3 C 89 % 83 % 100 % 1016,8 hPa 0,0 l/m 0,0 km/h (0 Bft) W-SW 247 5 min 0,1 UV-I 11,4 C 25,5 C 0,0 km/h (0 Bft)
07.06.2014 07:35 13,7 C 24,7 C 14,3 C 26,2 C 26,2 C 12,5 C 88 % 83 % 100 % 1016,8 hPa 0,0 l/m 0,0 km/h (0 Bft) NO 45 5 min 0,0 UV-I 11,7 C 26,2 C 0,0 km/h (0 Bft)
07.06.2014 07:40 14,3 C 24,7 C 14,5 C 26,9 C 26,9 C 12,6 C 87 % 83 % 100 % 1016,9 hPa 0,0 l/m 0,0 km/h (0 Bft) W-SW 247 5 min 0,0 UV-I 12,2 C 26,9 C 0,0 km/h (0 Bft)
07.06.2014 07:45 14,8 C 24,7 C 14,7 C 27,3 C 27,3 C 12,5 C 85 % 83 % 100 % 1016,9 hPa 0,0 l/m 0,0 km/h (0 Bft) W-SW 247 5 min 0,0 UV-I 12,3 C 27,3 C 0,0 km/h (0 Bft)
07.06.2014 07:50 15,4 C 24,6 C 14,8 C 27,9 C 27,9 C 12,5 C 84 % 83 % 100 % 1016,9 hPa 0,0 l/m 0,0 km/h (0 Bft) W-SW 247 5 min 0,0 UV-I 12,7 C 27,9 C 0,0 km/h (0 Bft)
07.06.2014 07:55 15,9 C 24,6 C 14,9 C 28,4 C 28,4 C 12,5 C 84 % 83 % 100 % 1016,9 hPa 0,0 l/m 0,0 km/h (0 Bft) W-SW 247 5 min 0,0 UV-I 13,2 C 28,4 C 0,0 km/h (0 Bft)
07.06.2014 08:00 16,6 C 24,6 C 15,0 C 29,0 C 29,0 C 12,4 C 82 % 83 % 100 % 1016,8 hPa 0,0 l/m 0,0 km/h (0 Bft) S-SW 202 5 min 0,0 UV-I 13,5 C 29,0 C 0,0 km/h (0 Bft)
07.06.2014 08:05 17,2 C 24,6 C 15,1 C 29,5 C 29,5 C 12,3 C 80 % 83 % 100 % 1016,8 hPa 0,0 l/m 0,0 km/h (0 Bft) W-SW 247 5 min 0,0 UV-I 13,7 C 29,5 C 0,0 km/h (0 Bft)
07.06.2014 08:10 17,6 C 24,6 C 15,2 C 29,9 C 29,9 C 12,3 C 79 % 82 % 100 % 1016,8 hPa 0,0 l/m 0,0 km/h (0 Bft) W-SW 247 5 min 0,0 UV-I 13,9 C 29,9 C 0,0 km/h (0 Bft)
07.06.2014 08:15 17,9 C 24,6 C 15,5 C 30,2 C 30,2 C 12,3 C 78 % 82 % 100 % 1016,8 hPa 0,0 l/m 0,0 km/h (0 Bft) W-SW 247 5 min 0,0 UV-I 14,0 C 30,2 C 0,0 km/h (0 Bft)
07.06.2014 08:20 18,4 C 24,6 C 15,6 C 30,7 C 30,7 C 12,3 C 77 % 83 % 100 % 1016,9 hPa 0,0 l/m 0,0 km/h (0 Bft) SW 225 5 min 0,0 UV-I 14,3 C 30,7 C 0,0 km/h (0 Bft)
07.06.2014 08:25 18,7 C 24,6 C 15,9 C 30,9 C 30,9 C 12,2 C 76 % 82 % 100 % 1016,9 hPa 0,0 l/m 0,0 km/h (0 Bft) S 180 5 min 0,0 UV-I 14,4 C 30,9 C 0,0 km/h (0 Bft)
07.06.2014 08:30 18,8 C 24,6 C 16,2 C 31,2 C 31,2 C 12,4 C 75 % 82 % 100 % 1016,9 hPa 0,0 l/m 0,0 km/h (0 Bft) S-SW 202 5 min 0,0 UV-I 14,3 C 31,2 C 0,0 km/h (0 Bft)
07.06.2014 08:35 19,1 C 24,6 C 16,4 C 31,4 C 31,4 C 12,3 C 75 % 82 % 100 % 1016,9 hPa 0,0 l/m 0,0 km/h (0 Bft) SW 225 5 min 0,0 UV-I 14,6 C 31,4 C 0,0 km/h (0 Bft)
07.06.2014 08:40 19,5 C 24,5 C 16,6 C 31,9 C 31,9 C 12,4 C 74 % 82 % 100 % 1016,8 hPa 0,0 l/m 0,0 km/h (0 Bft) W-SW 247 5 min 0,0 UV-I 14,7 C 31,9 C 0,0 km/h (0 Bft)
07.06.2014 08:45 19,7 C 24,5 C 16,7 C 32,1 C 32,1 C 12,4 C 74 % 82 % 100 % 1016,8 hPa 0,0 l/m 0,0 km/h (0 Bft) W-SW 247 5 min 0,0 UV-I 14,9 C 32,1 C 0,0 km/h (0 Bft)
07.06.2014 08:50 20,3 C 24,6 C 16,8 C 32,4 C 32,4 C 12,1 C 73 % 82 % 100 % 1016,8 hPa 0,0 l/m 0,0 km/h (0 Bft) S 180 5 min 0,0 UV-I 15,3 C 32,4 C 0,0 km/h (0 Bft)
07.06.2014 08:55 20,5 C 24,6 C 16,9 C 32,7 C 32,7 C 12,2 C 72 % 82 % 100 % 1016,8 hPa 0,0 l/m 0,0 km/h (0 Bft) W-SW 247 5 min 0,0 UV-I 15,3 C 32,7 C 0,0 km/h (0 Bft)
07.06.2014 09:00 20,9 C 24,6 C 16,9 C 32,9 C 32,9 C 12,0 C 70 % 82 % 100 % 1016,6 hPa 0,0 l/m 0,0 km/h (0 Bft) SW 225 5 min 0,0 UV-I 15,2 C 32,9 C 0,0 km/h (0 Bft)
07.06.2014 09:05 21,2 C 24,6 C 17,0 C 33,0 C 33,0 C 11,8 C 70 % 82 % 100 % 1016,6 hPa 0,0 l/m 0,0 km/h (0 Bft) W-SW 247 5 min 0,0 UV-I 15,5 C 33,0 C 0,0 km/h (0 Bft)
07.06.2014 09:10 21,5 C 24,6 C 17,3 C 33,2 C 33,2 C 11,7 C 69 % 81 % 100 % 1016,6 hPa 0,0 l/m 0,0 km/h (0 Bft) S-SW 202 5 min 0,0 UV-I 15,6 C 33,2 C 0,0 km/h (0 Bft)
07.06.2014 09:15 21,8 C 24,6 C 17,5 C 33,4 C 33,4 C 11,6 C 68 % 81 % 100 % 1016,6 hPa 0,0 l/m 0,0 km/h (0 Bft) NW 315 5 min 0,0 UV-I 15,6 C 33,4 C 0,0 km/h (0 Bft)
07.06.2014 09:20 22,5 C 24,6 C 17,7 C 34,0 C 34,0 C 11,5 C 66 % 81 % 100 % 1016,6 hPa 0,0 l/m 0,0 km/h (0 Bft) W-SW 247 5 min 0,0 UV-I 15,8 C 34,0 C 0,0 km/h (0 Bft)
07.06.2014 09:25 22,6 C 24,6 C 17,9 C 34,3 C 34,3 C 11,7 C 65 % 80 % 100 % 1016,6 hPa 0,0 l/m 0,0 km/h (0 Bft) O-NO 67 5 min 0,0 UV-I 15,7 C 34,3 C 0,0 km/h (0 Bft)
07.06.2014 09:30 23,1 C 24,5 C 18,2 C 33,8 C 33,8 C 10,7 C 63 % 80 % 100 % 1016,6 hPa 0,0 l/m 0,2 km/h (0 Bft) W-SW 247 5 min 0,0 UV-I 15,7 C 33,8 C 1,6 km/h (1 Bft)
07.06.2014 09:35 23,1 C 24,6 C 18,2 C 34,0 C 34,0 C 10,9 C 63 % 79 % 100 % 1016,6 hPa 0,0 l/m 0,2 km/h (0 Bft) W-SW 247 5 min 0,0 UV-I 15,7 C 34,0 C 0,0 km/h (0 Bft)
07.06.2014 09:40 23,3 C 24,6 C 18,4 C 34,0 C 34,0 C 10,7 C 61 % 79 % 100 % 1016,8 hPa 0,0 l/m 0,3 km/h (0 Bft) SW 225 5 min 0,0 UV-I 15,3 C 34,0 C 4,0 km/h (1 Bft)
07.06.2014 09:45 23,4 C 24,6 C 18,5 C 34,1 C 34,1 C 10,7 C 60 % 78 % 100 % 1016,8 hPa 0,0 l/m 0,5 km/h (0 Bft) SW 225 5 min 0,0 UV-I 15,2 C 34,1 C 0,0 km/h (0 Bft)
07.06.2014 09:50 23,4 C 24,6 C 18,7 C 34,5 C 34,5 C 11,1 C 60 % 78 % 100 % 1016,8 hPa 0,0 l/m 0,3 km/h (0 Bft) SW 225 5 min 0,0 UV-I 15,2 C 34,5 C 0,0 km/h (0 Bft)
07.06.2014 09:55 23,5 C 24,6 C 18,8 C 34,4 C 34,4 C 10,9 C 58 % 77 % 100 % 1016,8 hPa 0,0 l/m 0,6 km/h (0 Bft) NW 315 5 min 0,0 UV-I 14,7 C 34,4 C 0,0 km/h (0 Bft)
07.06.2014 10:00 23,6 C 24,6 C 19,1 C 34,1 C 34,1 C 10,5 C 56 % 75 % 100 % 1016,7 hPa 0,0 l/m 1,0 km/h (0 Bft) W 270 5 min 0,0 UV-I 14,3 C 34,1 C 7,1 km/h (2 Bft)
07.06.2014 10:05 23,6 C 24,6 C 19,2 C 34,1 C 34,1 C 10,5 C 56 % 75 % 100 % 1016,7 hPa 0,0 l/m 0,6 km/h (0 Bft) W-SW 247 5 min 0,0 UV-I 14,3 C 34,1 C 0,0 km/h (0 Bft)
07.06.2014 10:10 23,9 C 24,6 C 19,5 C 34,4 C 34,4 C 10,5 C 55 % 73 % 100 % 1016,7 hPa 0,0 l/m 0,3 km/h (0 Bft) S 180 5 min 0,0 UV-I 14,3 C 34,4 C 1,9 km/h (1 Bft)
07.06.2014 10:15 23,8 C 24,6 C 19,6 C 34,5 C 34,5 C 10,7 C 55 % 73 % 100 % 1016,7 hPa 0,0 l/m 0,5 km/h (0 Bft) O 90 5 min 0,0 UV-I 14,2 C 34,5 C 1,6 km/h (1 Bft)
07.06.2014 10:20 24,0 C 24,7 C 19,6 C 34,4 C 34,4 C 10,4 C 55 % 73 % 100 % 1016,9 hPa 0,0 l/m 1,0 km/h (0 Bft) SW 225 5 min 0,0 UV-I 14,4 C 34,4 C 0,0 km/h (0 Bft)
07.06.2014 10:25 24,0 C 24,7 C 19,7 C 34,2 C 34,2 C 10,2 C 55 % 73 % 100 % 1016,9 hPa 0,0 l/m 1,4 km/h (1 Bft) W-SW 247 5 min 0,0 UV-I 14,4 C 34,2 C 5,1 km/h (1 Bft)
07.06.2014 10:30 24,2 C 24,6 C 19,9 C 33,3 C 33,3 C 9,1 C 53 % 72 % 100 % 1016,9 hPa 0,0 l/m 2,6 km/h (1 Bft) S 180 5 min 0,0 UV-I 14,0 C 33,3 C 4,8 km/h (1 Bft)
07.06.2014 10:35 24,3 C 24,6 C 19,9 C 32,8 C 32,8 C 8,5 C 53 % 71 % 100 % 1016,9 hPa 0,0 l/m 3,5 km/h (1 Bft) S-SW 202 5 min 0,0 UV-I 14,1 C 32,8 C 1,9 km/h (1 Bft)
07.06.2014 10:40 24,4 C 24,7 C 20,0 C 32,5 C 32,5 C 8,1 C 53 % 71 % 100 % 1016,7 hPa 0,0 l/m 3,1 km/h (1 Bft) W-SW 247 5 min 0,0 UV-I 14,2 C 32,5 C 9,7 km/h (2 Bft)
07.06.2014 10:45 24,8 C 24,7 C 20,2 C 32,9 C 32,9 C 8,1 C 51 % 70 % 100 % 1016,7 hPa 0,0 l/m 1,9 km/h (1 Bft) W-SW 247 5 min 0,0 UV-I 14,0 C 32,9 C 4,2 km/h (1 Bft)
07.06.2014 10:50 25,5 C 24,7 C 20,4 C 33,2 C 33,2 C 7,7 C 51 % 69 % 100 % 1016,7 hPa 0,0 l/m 0,8 km/h (0 Bft) W 270 5 min 0,0 UV-I 14,6 C 33,2 C 2,4 km/h (1 Bft)
07.06.2014 10:55 25,7 C 24,7 C 20,5 C 33,3 C 33,3 C 7,6 C 50 % 69 % 100 % 1016,7 hPa 0,0 l/m 0,6 km/h (0 Bft) N-NO 22 5 min 0,0 UV-I 14,5 C 33,3 C 0,0 km/h (0 Bft)
07.06.2014 11:00 25,9 C 24,7 C 20,6 C 33,7 C 33,7 C 7,8 C 50 % 69 % 100 % 1017,0 hPa 0,0 l/m 0,2 km/h (0 Bft) W 270 5 min 0,0 UV-I 14,7 C 33,7 C 0,0 km/h (0 Bft)
07.06.2014 11:05 26,0 C 24,7 C 20,7 C 34,0 C 34,0 C 8,0 C 49 % 68 % 100 % 1017,0 hPa 0,0 l/m 0,2 km/h (0 Bft) S 180 5 min 0,0 UV-I 14,4 C 34,0 C 2,9 km/h (1 Bft)
07.06.2014 11:10 26,2 C 24,8 C 20,8 C 34,1 C 34,1 C 7,9 C 50 % 68 % 100 % 1017,0 hPa 0,0 l/m 0,5 km/h (0 Bft) SW 225 5 min 0,0 UV-I 14,9 C 34,1 C 4,3 km/h (1 Bft)
07.06.2014 11:15 26,2 C 24,8 C 20,8 C 33,7 C 33,7 C 7,5 C 49 % 68 % 100 % 1017,0 hPa 0,0 l/m 1,9 km/h (1 Bft) S 180 5 min 0,1 UV-I 14,6 C 33,7 C 7,9 km/h (2 Bft)
07.06.2014 11:20 26,0 C 24,8 C 20,8 C 33,1 C 33,1 C 7,1 C 49 % 68 % 100 % 1017,0 hPa 0,0 l/m 2,9 km/h (1 Bft) S 180 5 min 0,1 UV-I 14,4 C 33,1 C 2,6 km/h (1 Bft)
07.06.2014 11:25 25,9 C 24,8 C 21,1 C 33,0 C 33,0 C 7,1 C 49 % 68 % 100 % 1017,0 hPa 0,0 l/m 2,6 km/h (1 Bft) W-SW 247 5 min 0,0 UV-I 14,4 C 33,0 C 2,4 km/h (1 Bft)
07.06.2014 11:30 25,7 C 24,8 C 21,1 C 32,7 C 32,7 C 7,0 C 49 % 68 % 100 % 1017,0 hPa 0,0 l/m 2,9 km/h (1 Bft) SW 225 5 min 0,0 UV-I 14,2 C 32,7 C 2,6 km/h (1 Bft)
07.06.2014 11:35 25,6 C 24,8 C 21,2 C 32,6 C 32,6 C 7,0 C 49 % 68 % 100 % 1017,0 hPa 0,0 l/m 2,7 km/h (1 Bft) W 270 5 min 0,0 UV-I 14,1 C 32,6 C 0,0 km/h (0 Bft)
07.06.2014 11:40 25,7 C 24,9 C 21,2 C 33,4 C 33,4 C 7,7 C 50 % 68 % 100 % 1016,7 hPa 0,0 l/m 1,4 km/h (1 Bft) SW 225 5 min 0,0 UV-I 14,5 C 33,4 C 1,8 km/h (1 Bft)
07.06.2014 11:45 25,7 C 24,8 C 21,3 C 33,6 C 33,6 C 7,9 C 49 % 68 % 100 % 1016,7 hPa 0,0 l/m 1,0 km/h (0 Bft) SW 225 5 min 0,0 UV-I 14,2 C 33,6 C 3,1 km/h (1 Bft)
07.06.2014 11:50 25,8 C 24,8 C 21,6 C 33,1 C 33,1 C 7,3 C 48 % 67 % 100 % 1016,7 hPa 0,0 l/m 2,3 km/h (1 Bft) SW 225 5 min 0,0 UV-I 13,9 C 33,1 C 3,5 km/h (1 Bft)
07.06.2014 11:55 25,9 C 24,8 C 21,7 C 33,1 C 33,1 C 7,2 C 48 % 66 % 100 % 1016,7 hPa 0,0 l/m 2,1 km/h (1 Bft) W-SW 247 5 min 0,0 UV-I 14,0 C 33,1 C 5,0 km/h (1 Bft)
07.06.2014 12:00 26,1 C 25,0 C 21,9 C 33,2 C 33,2 C 7,1 C 47 % 65 % 100 % 1017,4 hPa 0,0 l/m 1,8 km/h (1 Bft) W-NW 292 5 min 0,0 UV-I 13,9 C 33,2 C 2,9 km/h (1 Bft)
07.06.2014 12:05 26,2 C 25,0 C 22,0 C 33,4 C 33,4 C 7,2 C 49 % 65 % 100 % 1017,4 hPa 0,0 l/m 1,8 km/h (1 Bft) W-SW 247 5 min 0,0 UV-I 14,6 C 33,4 C 1,9 km/h (1 Bft)
07.06.2014 12:10 26,5 C 25,0 C 22,1 C 33,7 C 33,7 C 7,2 C 48 % 65 % 100 % 1017,4 hPa 0,0 l/m 1,4 km/h (1 Bft) S-SW 202 5 min 0,0 UV-I 14,6 C 33,7 C 2,9 km/h (1 Bft)
07.06.2014 12:15 26,7 C 25,0 C 22,2 C 33,3 C 33,3 C 6,6 C 46 % 65 % 100 % 1017,4 hPa 0,0 l/m 2,6 km/h (1 Bft) SW 225 5 min 0,0 UV-I 14,1 C 33,3 C 2,4 km/h (1 Bft)
07.06.2014 12:20 26,9 C 25,0 C 22,3 C 32,9 C 32,9 C 6,0 C 46 % 64 % 100 % 1016,8 hPa 0,0 l/m 3,5 km/h (1 Bft) O 90 5 min 0,0 UV-I 14,3 C 32,9 C 4,3 km/h (1 Bft)
07.06.2014 12:25 26,9 C 25,1 C 22,4 C 32,5 C 32,5 C 5,6 C 46 % 64 % 100 % 1016,8 hPa 0,0 l/m 3,1 km/h (1 Bft) W-SW 247 5 min 0,0 UV-I 14,3 C 32,5 C 0,0 km/h (0 Bft)
07.06.2014 12:30 27,3 C 25,1 C 22,5 C 32,7 C 32,7 C 5,4 C 46 % 64 % 100 % 1016,8 hPa 0,0 l/m 2,1 km/h (1 Bft) S-SW 202 5 min 0,0 UV-I 14,6 C 32,7 C 0,0 km/h (0 Bft)
07.06.2014 12:35 27,7 C 25,0 C 22,7 C 32,9 C 32,9 C 5,2 C 45 % 64 % 100 % 1016,8 hPa 0,0 l/m 1,6 km/h (1 Bft) W-SW 247 5 min 0,1 UV-I 14,7 C 32,9 C 2,7 km/h (1 Bft)
07.06.2014 12:40 27,8 C 25,0 C 22,7 C 33,0 C 33,0 C 5,2 C 42 % 63 % 100 % 1016,8 hPa 0,0 l/m 2,7 km/h (1 Bft) W-SW 247 5 min 0,1 UV-I 13,7 C 33,0 C 9,8 km/h (2 Bft)
07.06.2014 12:45 27,9 C 25,1 C 22,8 C 32,7 C 32,7 C 4,8 C 42 % 62 % 100 % 1016,8 hPa 0,0 l/m 3,7 km/h (1 Bft) SW 225 5 min 0,1 UV-I 13,8 C 32,7 C 5,3 km/h (1 Bft)
07.06.2014 12:50 27,9 C 25,1 C 23,1 C 32,7 C 32,7 C 4,8 C 42 % 62 % 100 % 1016,8 hPa 0,0 l/m 3,2 km/h (1 Bft) S 180 5 min 0,1 UV-I 13,8 C 32,7 C 0,0 km/h (0 Bft)
07.06.2014 12:55 28,3 C 25,1 C 23,2 C 33,0 C 33,0 C 4,7 C 44 % 62 % 100 % 1016,8 hPa 0,0 l/m 2,4 km/h (1 Bft) SW 225 5 min 0,1 UV-I 14,9 C 33,0 C 3,7 km/h (1 Bft)
07.06.2014 13:00 28,6 C 25,2 C 23,3 C 33,3 C 33,3 C 4,7 C 43 % 60 % 100 % 1016,6 hPa 0,0 l/m 1,6 km/h (1 Bft) W-SW 247 5 min 0,1 UV-I 14,8 C 33,3 C 2,6 km/h (1 Bft)
07.06.2014 13:05 29,0 C 25,2 C 23,5 C 33,6 C 33,6 C 4,6 C 43 % 60 % 100 % 1016,6 hPa 0,0 l/m 1,4 km/h (1 Bft) N-NO 22 5 min 0,1 UV-I 15,1 C 33,6 C 2,9 km/h (1 Bft)
07.06.2014 13:10 29,5 C 25,2 C 23,6 C 33,7 C 33,7 C 4,2 C 40 % 59 % 100 % 1016,6 hPa 0,0 l/m 1,8 km/h (1 Bft) S-SW 202 5 min 0,1 UV-I 14,5 C 33,7 C 5,1 km/h (1 Bft)
07.06.2014 13:15 29,5 C 25,2 C 23,8 C 33,7 C 33,7 C 4,2 C 39 % 59 % 100 % 1016,6 hPa 0,0 l/m 2,7 km/h (1 Bft) S-SW 202 5 min 0,1 UV-I 14,1 C 33,7 C 3,7 km/h (1 Bft)
07.06.2014 13:20 29,3 C 25,3 C 24,0 C 33,4 C 33,4 C 4,1 C 39 % 58 % 100 % 1016,9 hPa 0,0 l/m 3,5 km/h (1 Bft) SW 225 5 min 0,1 UV-I 13,9 C 33,4 C 2,9 km/h (1 Bft)
07.06.2014 13:25 29,4 C 25,3 C 24,1 C 33,6 C 33,6 C 4,2 C 39 % 57 % 100 % 1016,9 hPa 0,0 l/m 2,4 km/h (1 Bft) W 270 5 min 0,1 UV-I 14,0 C 33,6 C 5,8 km/h (2 Bft)
07.06.2014 13:30 29,5 C 25,3 C 24,3 C 33,7 C 33,7 C 4,2 C 37 % 57 % 100 % 1016,9 hPa 0,0 l/m 2,6 km/h (1 Bft) W-SW 247 5 min 0,1 UV-I 13,3 C 33,7 C 5,3 km/h (1 Bft)
07.06.2014 13:35 29,5 C 25,3 C 24,3 C 33,4 C 33,4 C 3,9 C 38 % 57 % 100 % 1016,9 hPa 0,0 l/m 3,5 km/h (1 Bft) S-SO 157 5 min 0,1 UV-I 13,7 C 33,4 C 4,2 km/h (1 Bft)
07.06.2014 13:40 29,6 C 25,4 C 24,7 C 33,4 C 33,4 C 3,8 C 38 % 58 % 100 % 1016,8 hPa 0,0 l/m 2,7 km/h (1 Bft) W 270 5 min 0,1 UV-I 13,8 C 33,4 C 2,7 km/h (1 Bft)
07.06.2014 13:45 29,8 C 25,4 C 25,0 C 33,5 C 33,5 C 3,7 C 37 % 57 % 97 % 1016,8 hPa 0,0 l/m 2,7 km/h (1 Bft) S 180 5 min 0,1 UV-I 13,5 C 33,5 C 1,8 km/h (1 Bft)
07.06.2014 13:50 29,9 C 25,4 C 25,2 C 33,7 C 33,7 C 3,8 C 38 % 57 % 100 % 1016,8 hPa 0,0 l/m 2,6 km/h (1 Bft) SO 135 5 min 0,1 UV-I 14,0 C 33,7 C 1,6 km/h (1 Bft)
07.06.2014 13:55 29,9 C 25,4 C 25,5 C 33,7 C 33,7 C 3,8 C 38 % 57 % 100 % 1016,8 hPa 0,0 l/m 2,3 km/h (1 Bft) O 90 5 min 0,1 UV-I 14,0 C 33,7 C 6,6 km/h (2 Bft)
07.06.2014 14:00 29,9 C 25,5 C 26,0 C 33,7 C 33,7 C 3,8 C 37 % 55 % 100 % 1016,7 hPa 0,0 l/m 3,1 km/h (1 Bft) SW 225 5 min 0,1 UV-I 13,6 C 33,7 C 3,4 km/h (1 Bft)
07.06.2014 14:05 29,9 C 25,5 C 26,2 C 33,6 C 33,6 C 3,7 C 38 % 54 % 97 % 1016,7 hPa 0,0 l/m 3,5 km/h (1 Bft) W 270 5 min 0,1 UV-I 14,0 C 33,6 C 0,0 km/h (0 Bft)
07.06.2014 14:10 30,1 C 25,5 C 25,9 C 33,7 C 33,7 C 3,6 C 38 % 53 % 95 % 1016,7 hPa 0,0 l/m 2,6 km/h (1 Bft) S 180 5 min 0,1 UV-I 14,2 C 33,7 C 2,9 km/h (1 Bft)
07.06.2014 14:15 30,3 C 25,6 C 25,7 C 33,7 C 33,7 C 3,4 C 37 % 51 % 89 % 1016,7 hPa 0,0 l/m 1,9 km/h (1 Bft) SW 225 5 min 0,1 UV-I 14,0 C 33,7 C 2,3 km/h (1 Bft)
07.06.2014 14:20 30,3 C 25,6 C 25,6 C 34,2 C 34,2 C 3,9 C 37 % 53 % 100 % 1016,7 hPa 0,0 l/m 1,9 km/h (1 Bft) SW 225 5 min 0,1 UV-I 14,0 C 34,2 C 3,1 km/h (1 Bft)
07.06.2014 14:25 30,3 C 25,6 C 25,6 C 34,3 C 34,3 C 4,0 C 37 % 52 % 100 % 1016,7 hPa 0,0 l/m 2,3 km/h (1 Bft) W-NW 292 5 min 0,1 UV-I 14,0 C 34,3 C 2,4 km/h (1 Bft)
07.06.2014 14:30 30,3 C 25,6 C 25,7 C 34,1 C 34,1 C 3,8 C 36 % 53 % 100 % 1016,7 hPa 0,0 l/m 2,7 km/h (1 Bft) W-SW 247 5 min 0,1 UV-I 13,5 C 34,1 C 1,6 km/h (1 Bft)
07.06.2014 14:35 30,5 C 25,7 C 25,7 C 34,2 C 34,2 C 3,7 C 37 % 54 % 97 % 1016,7 hPa 0,0 l/m 2,6 km/h (1 Bft) W-SW 247 5 min 0,1 UV-I 14,1 C 34,2 C 3,1 km/h (1 Bft)
07.06.2014 14:40 30,6 C 25,6 C 26,0 C 34,4 C 34,4 C 3,8 C 37 % 53 % 100 % 1016,3 hPa 0,0 l/m 2,7 km/h (1 Bft) S 180 5 min 0,1 UV-I 14,2 C 34,4 C 5,8 km/h (2 Bft)
07.06.2014 14:45 30,7 C 25,6 C 25,9 C 34,3 C 34,3 C 3,6 C 37 % 53 % 95 % 1016,3 hPa 0,0 l/m 2,7 km/h (1 Bft) W-SW 247 5 min 0,1 UV-I 14,3 C 34,3 C 1,8 km/h (1 Bft)
07.06.2014 14:50 30,9 C 25,7 C 26,0 C 34,6 C 34,6 C 3,7 C 36 % 53 % 97 % 1016,3 hPa 0,0 l/m 2,1 km/h (1 Bft) S-SO 157 5 min 0,1 UV-I 14,1 C 34,6 C 4,2 km/h (1 Bft)
07.06.2014 14:55 31,1 C 25,7 C 26,0 C 34,7 C 34,7 C 3,6 C 36 % 53 % 95 % 1016,3 hPa 0,0 l/m 1,9 km/h (1 Bft) N-NW 337 5 min 0,1 UV-I 14,2 C 34,7 C 3,1 km/h (1 Bft)
07.06.2014 15:00 31,2 C 25,7 C 26,0 C 35,1 C 35,1 C 3,9 C 36 % 53 % 100 % 1016,5 hPa 0,0 l/m 2,1 km/h (1 Bft) S-SW 202 5 min 0,1 UV-I 14,3 C 35,1 C 5,3 km/h (1 Bft)
07.06.2014 15:05 31,4 C 25,7 C 26,1 C 34,7 C 34,7 C 3,3 C 36 % 53 % 87 % 1016,5 hPa 0,0 l/m 2,3 km/h (1 Bft) SW 225 5 min 0,1 UV-I 14,5 C 34,7 C 4,7 km/h (1 Bft)
07.06.2014 15:10 31,7 C 25,7 C 26,0 C 34,7 C 34,7 C 3,0 C 35 % 53 % 79 % 1016,5 hPa 0,0 l/m 2,9 km/h (1 Bft) W 270 0 min 0,1 UV-I 14,3 C 34,7 C 6,0 km/h (2 Bft)
07.06.2014 15:15 31,8 C 25,8 C 26,1 C 34,7 C 34,7 C 2,9 C 35 % 52 % 76 % 1016,5 hPa 0,0 l/m 2,4 km/h (1 Bft) S 180 0 min 0,1 UV-I 14,4 C 34,7 C 3,7 km/h (1 Bft)
07.06.2014 15:20 32,0 C 25,8 C 26,1 C 35,2 C 35,2 C 3,2 C 34 % 51 % 84 % 1016,3 hPa 0,0 l/m 1,4 km/h (1 Bft) W 270 0 min 0,1 UV-I 14,1 C 35,2 C 3,7 km/h (1 Bft)
07.06.2014 15:25 31,9 C 25,8 C 26,3 C 35,3 C 35,3 C 3,4 C 34 % 52 % 89 % 1016,3 hPa 0,0 l/m 1,6 km/h (1 Bft) W-SW 247 5 min 0,1 UV-I 14,1 C 35,3 C 6,1 km/h (2 Bft)
07.06.2014 15:30 32,0 C 25,9 C 26,3 C 35,3 C 35,3 C 3,3 C 34 % 52 % 87 % 1016,3 hPa 0,0 l/m 2,4 km/h (1 Bft) W-SW 247 5 min 0,1 UV-I 14,1 C 35,3 C 2,7 km/h (1 Bft)
07.06.2014 15:35 32,2 C 26,0 C 26,3 C 35,3 C 35,3 C 3,1 C 35 % 53 % 82 % 1016,3 hPa 0,0 l/m 2,3 km/h (1 Bft) W-SW 247 0 min 0,1 UV-I 14,8 C 35,3 C 3,1 km/h (1 Bft)
07.06.2014 15:40 32,1 C 26,0 C 26,4 C 35,0 C 35,0 C 2,9 C 34 % 52 % 76 % 1016,1 hPa 0,0 l/m 2,7 km/h (1 Bft) SW 225 0 min 0,1 UV-I 14,2 C 35,0 C 2,3 km/h (1 Bft)
07.06.2014 15:45 32,1 C 26,0 C 26,4 C 35,0 C 35,0 C 2,9 C 35 % 53 % 76 % 1016,1 hPa 0,0 l/m 2,9 km/h (1 Bft) NW 315 0 min 0,1 UV-I 14,7 C 35,0 C 2,1 km/h (1 Bft)
07.06.2014 15:50 32,2 C 26,0 C 26,4 C 35,4 C 35,4 C 3,2 C 35 % 54 % 84 % 1016,1 hPa 0,0 l/m 2,1 km/h (1 Bft) W-SW 247 0 min 0,0 UV-I 14,8 C 35,4 C 5,1 km/h (1 Bft)
07.06.2014 15:55 32,2 C 26,1 C 26,4 C 35,4 C 35,4 C 3,2 C 34 % 52 % 84 % 1016,1 hPa 0,0 l/m 1,8 km/h (1 Bft) W-SW 247 0 min 0,0 UV-I 14,3 C 35,4 C 4,2 km/h (1 Bft)
07.06.2014 16:00 32,3 C 26,1 C 26,7 C 35,4 C 35,4 C 3,1 C 35 % 51 % 82 % 1016,1 hPa 0,0 l/m 2,6 km/h (1 Bft) O-NO 67 0 min 0,0 UV-I 14,9 C 35,4 C 0,0 km/h (0 Bft)
07.06.2014 16:05 32,4 C 26,1 C 26,7 C 35,3 C 35,3 C 2,9 C 34 % 53 % 76 % 1016,1 hPa 0,0 l/m 1,9 km/h (1 Bft) W 270 0 min 0,0 UV-I 14,5 C 35,3 C 0,0 km/h (0 Bft)
07.06.2014 16:10 32,0 C 26,2 C 26,7 C 35,9 C 35,9 C 3,9 C 35 % 51 % 100 % 1016,1 hPa 0,0 l/m 0,6 km/h (0 Bft) S 180 5 min 0,0 UV-I 14,6 C 35,9 C 0,0 km/h (0 Bft)
07.06.2014 16:15 31,9 C 26,2 C 26,5 C 36,1 C 36,1 C 4,2 C 35 % 51 % 100 % 1016,1 hPa 0,0 l/m 1,1 km/h (1 Bft) W-SW 247 5 min 0,0 UV-I 14,5 C 36,1 C 3,2 km/h (1 Bft)
07.06.2014 16:20 32,1 C 26,2 C 26,6 C 36,0 C 36,0 C 3,9 C 33 % 49 % 100 % 1016,1 hPa 0,0 l/m 2,3 km/h (1 Bft) NW 315 5 min 0,0 UV-I 13,8 C 36,0 C 3,1 km/h (1 Bft)
07.06.2014 16:25 31,7 C 26,2 C 26,9 C 35,9 C 35,9 C 4,2 C 34 % 50 % 100 % 1016,1 hPa 0,0 l/m 1,9 km/h (1 Bft) O-NO 67 5 min 0,0 UV-I 13,9 C 35,9 C 0,0 km/h (0 Bft)
07.06.2014 16:30 31,4 C 26,3 C 27,1 C 36,5 C 36,5 C 5,1 C 35 % 50 % 100 % 1016,1 hPa 0,0 l/m 1,4 km/h (1 Bft) W-SW 247 5 min 0,0 UV-I 14,1 C 36,5 C 5,6 km/h (1 Bft)
07.06.2014 16:35 31,5 C 26,3 C 27,0 C 36,5 C 36,5 C 5,0 C 34 % 50 % 100 % 1016,1 hPa 0,0 l/m 1,4 km/h (1 Bft) N 360 5 min 0,1 UV-I 13,7 C 36,5 C 1,6 km/h (1 Bft)
07.06.2014 16:40 31,7 C 26,3 C 26,8 C 36,8 C 36,8 C 5,1 C 35 % 50 % 100 % 1015,9 hPa 0,0 l/m 1,4 km/h (1 Bft) W-SW 247 5 min 0,1 UV-I 14,3 C 36,8 C 2,9 km/h (1 Bft)
07.06.2014 16:45 31,9 C 26,3 C 26,7 C 36,6 C 36,6 C 4,7 C 34 % 53 % 100 % 1015,9 hPa 0,0 l/m 1,1 km/h (1 Bft) O-SO 112 5 min 0,1 UV-I 14,1 C 36,6 C 0,0 km/h (0 Bft)
07.06.2014 16:50 31,6 C 26,4 C 26,3 C 36,3 C 36,3 C 4,7 C 35 % 51 % 100 % 1015,9 hPa 0,0 l/m 1,0 km/h (0 Bft) SW 225 5 min 0,1 UV-I 14,2 C 36,3 C 0,0 km/h (0 Bft)
07.06.2014 16:55 31,4 C 26,4 C 26,4 C 36,6 C 36,6 C 5,2 C 36 % 52 % 100 % 1015,9 hPa 0,0 l/m 0,5 km/h (0 Bft) W-NW 292 5 min 0,1 UV-I 14,5 C 36,6 C 2,6 km/h (1 Bft)
07.06.2014 17:00 31,3 C 26,4 C 26,8 C 36,8 C 36,8 C 5,5 C 36 % 52 % 100 % 1015,8 hPa 0,0 l/m 1,0 km/h (0 Bft) SW 225 5 min 0,1 UV-I 14,4 C 36,8 C 4,5 km/h (1 Bft)
07.06.2014 17:05 31,3 C 26,4 C 26,7 C 36,5 C 36,5 C 5,2 C 35 % 52 % 100 % 1015,8 hPa 0,0 l/m 1,9 km/h (1 Bft) SW 225 5 min 0,1 UV-I 14,0 C 36,5 C 0,0 km/h (0 Bft)
07.06.2014 17:10 31,1 C 26,4 C 26,6 C 36,4 C 36,4 C 5,3 C 36 % 51 % 100 % 1015,8 hPa 0,0 l/m 1,6 km/h (1 Bft) W-SW 247 5 min 0,1 UV-I 14,2 C 36,4 C 2,1 km/h (1 Bft)
07.06.2014 17:15 31,0 C 26,5 C 26,5 C 36,4 C 36,4 C 5,4 C 36 % 52 % 100 % 1015,8 hPa 0,0 l/m 1,1 km/h (1 Bft) W-SW 247 5 min 0,0 UV-I 14,2 C 36,4 C 3,5 km/h (1 Bft)
07.06.2014 17:20 30,9 C 26,5 C 26,5 C 36,0 C 36,0 C 5,1 C 36 % 53 % 100 % 1016,1 hPa 0,0 l/m 1,9 km/h (1 Bft) SW 225 5 min 0,1 UV-I 14,1 C 36,0 C 3,5 km/h (1 Bft)
07.06.2014 17:25 30,7 C 26,5 C 26,5 C 36,0 C 36,0 C 5,3 C 36 % 53 % 100 % 1016,1 hPa 0,0 l/m 1,6 km/h (1 Bft) W 270 5 min 0,1 UV-I 13,9 C 36,0 C 0,0 km/h (0 Bft)
07.06.2014 17:30 30,8 C 26,5 C 26,5 C 36,5 C 36,5 C 5,7 C 37 % 51 % 100 % 1016,1 hPa 0,0 l/m 1,0 km/h (0 Bft) NW 315 5 min 0,0 UV-I 14,4 C 36,5 C 0,0 km/h (0 Bft)
07.06.2014 17:35 30,8 C 26,6 C 26,6 C 37,1 C 37,1 C 6,3 C 37 % 51 % 100 % 1016,1 hPa 0,0 l/m 0,3 km/h (0 Bft) SO 135 5 min 0,0 UV-I 14,4 C 37,1 C 0,0 km/h (0 Bft)
07.06.2014 17:40 30,7 C 26,6 C 26,4 C 37,4 C 37,4 C 6,7 C 37 % 53 % 100 % 1016,0 hPa 0,0 l/m 0,6 km/h (0 Bft) W-SW 247 5 min 0,0 UV-I 14,3 C 37,4 C 0,0 km/h (0 Bft)
07.06.2014 17:45 30,7 C 26,6 C 26,5 C 37,0 C 37,0 C 6,3 C 36 % 50 % 100 % 1016,0 hPa 0,0 l/m 0,8 km/h (0 Bft) SW 225 5 min 0,0 UV-I 13,9 C 37,0 C 1,6 km/h (1 Bft)
07.06.2014 17:50 30,5 C 26,6 C 26,5 C 36,5 C 36,5 C 6,0 C 36 % 53 % 100 % 1016,0 hPa 0,0 l/m 0,5 km/h (0 Bft) NW 315 5 min 0,0 UV-I 13,7 C 36,5 C 2,1 km/h (1 Bft)
07.06.2014 17:55 30,4 C 26,6 C 26,5 C 36,2 C 36,2 C 5,8 C 36 % 50 % 100 % 1016,0 hPa 0,0 l/m 0,5 km/h (0 Bft) W-SW 247 5 min 0,0 UV-I 13,6 C 36,2 C 0,0 km/h (0 Bft)
07.06.2014 18:00 30,4 C 26,6 C 26,3 C 36,1 C 36,1 C 5,7 C 37 % 54 % 100 % 1016,1 hPa 0,0 l/m 0,5 km/h (0 Bft) NO 45 5 min 0,0 UV-I 14,0 C 36,1 C 0,0 km/h (0 Bft)
07.06.2014 18:05 30,3 C 26,6 C 26,4 C 36,1 C 36,1 C 5,8 C 38 % 52 % 100 % 1016,1 hPa 0,0 l/m 1,0 km/h (0 Bft) O 90 5 min 0,0 UV-I 14,4 C 36,1 C 3,2 km/h (1 Bft)
07.06.2014 18:10 29,7 C 26,7 C 26,6 C 35,4 C 35,4 C 5,7 C 38 % 50 % 100 % 1016,1 hPa 0,0 l/m 1,9 km/h (1 Bft) SO 135 5 min 0,1 UV-I 13,8 C 35,4 C 0,0 km/h (0 Bft)
07.06.2014 18:15 29,5 C 26,7 C 26,8 C 35,4 C 35,4 C 5,9 C 40 % 51 % 100 % 1016,1 hPa 0,0 l/m 1,9 km/h (1 Bft) NO 45 5 min 0,1 UV-I 14,5 C 35,4 C 0,0 km/h (0 Bft)
07.06.2014 18:20 29,5 C 26,7 C 26,7 C 35,0 C 35,0 C 5,5 C 42 % 53 % 100 % 1015,8 hPa 0,0 l/m 1,8 km/h (1 Bft) O-NO 67 5 min 0,0 UV-I 15,2 C 35,0 C 4,3 km/h (1 Bft)
07.06.2014 18:25 29,2 C 26,7 C 26,9 C 34,5 C 34,5 C 5,3 C 41 % 51 % 100 % 1015,8 hPa 0,0 l/m 2,9 km/h (1 Bft) O-SO 112 5 min 0,0 UV-I 14,6 C 34,5 C 2,9 km/h (1 Bft)
07.06.2014 18:30 29,0 C 26,7 C 26,8 C 33,9 C 33,9 C 4,9 C 44 % 53 % 100 % 1015,8 hPa 0,0 l/m 3,5 km/h (1 Bft) NO 45 5 min 0,0 UV-I 15,5 C 33,9 C 5,3 km/h (1 Bft)
07.06.2014 18:35 28,9 C 26,7 C 26,7 C 33,0 C 33,0 C 4,1 C 45 % 54 % 100 % 1015,8 hPa 0,0 l/m 3,7 km/h (1 Bft) SO 135 5 min 0,0 UV-I 15,8 C 33,0 C 3,4 km/h (1 Bft)
07.06.2014 18:40 28,7 C 26,7 C 26,3 C 32,3 C 32,3 C 3,6 C 46 % 55 % 95 % 1015,7 hPa 0,0 l/m 3,4 km/h (1 Bft) O-NO 67 5 min 0,0 UV-I 15,9 C 32,3 C 4,0 km/h (1 Bft)
07.06.2014 18:45 28,6 C 26,8 C 26,5 C 32,2 C 32,2 C 3,6 C 45 % 55 % 95 % 1015,7 hPa 0,0 l/m 3,4 km/h (1 Bft) O-NO 67 5 min 0,0 UV-I 15,5 C 32,2 C 5,3 km/h (1 Bft)
07.06.2014 18:50 28,4 C 26,8 C 26,7 C 32,2 C 32,2 C 3,8 C 45 % 53 % 100 % 1015,7 hPa 0,0 l/m 3,9 km/h (1 Bft) O-NO 67 5 min 0,0 UV-I 15,3 C 32,2 C 6,4 km/h (2 Bft)
07.06.2014 18:55 28,4 C 26,8 C 26,6 C 32,0 C 32,0 C 3,6 C 46 % 53 % 95 % 1015,7 hPa 0,0 l/m 4,0 km/h (1 Bft) O 90 5 min 0,0 UV-I 15,6 C 32,0 C 4,7 km/h (1 Bft)
07.06.2014 19:00 28,3 C 26,8 C 26,6 C 31,7 C 31,7 C 3,4 C 45 % 53 % 89 % 1015,8 hPa 0,0 l/m 4,2 km/h (1 Bft) O-SO 112 5 min 0,0 UV-I 15,2 C 31,7 C 3,9 km/h (1 Bft)
07.06.2014 19:05 28,3 C 26,8 C 26,5 C 31,6 C 31,6 C 3,3 C 44 % 53 % 87 % 1015,8 hPa 0,0 l/m 4,0 km/h (1 Bft) O-NO 67 5 min 0,0 UV-I 14,9 C 31,6 C 6,0 km/h (2 Bft)
07.06.2014 19:10 28,2 C 26,8 C 26,3 C 31,0 C 31,0 C 2,8 C 45 % 53 % 74 % 1015,8 hPa 0,0 l/m 3,7 km/h (1 Bft) O 90 0 min 0,0 UV-I 15,1 C 31,0 C 4,5 km/h (1 Bft)
07.06.2014 19:15 28,0 C 26,8 C 26,3 C 30,3 C 30,3 C 2,3 C 46 % 53 % 61 % 1015,8 hPa 0,0 l/m 3,9 km/h (1 Bft) O 90 0 min 0,0 UV-I 15,3 C 30,3 C 3,5 km/h (1 Bft)
07.06.2014 19:20 27,7 C 26,8 C 26,0 C 29,2 C 29,2 C 1,5 C 47 % 54 % 39 % 1015,9 hPa 0,0 l/m 3,5 km/h (1 Bft) O-NO 67 0 min 0,0 UV-I 15,3 C 29,2 C 2,7 km/h (1 Bft)
07.06.2014 19:25 27,7 C 26,8 C 26,0 C 28,7 C 28,7 C 1,0 C 47 % 54 % 26 % 1015,9 hPa 0,0 l/m 3,2 km/h (1 Bft) O 90 0 min 0,0 UV-I 15,3 C 28,7 C 3,9 km/h (1 Bft)
07.06.2014 19:30 27,5 C 26,8 C 25,8 C 28,5 C 28,5 C 1,0 C 47 % 54 % 26 % 1015,9 hPa 0,0 l/m 3,5 km/h (1 Bft) O-NO 67 0 min 0,0 UV-I 15,2 C 28,5 C 4,8 km/h (1 Bft)
07.06.2014 19:35 27,5 C 26,9 C 25,9 C 28,4 C 28,4 C 0,9 C 47 % 54 % 24 % 1015,9 hPa 0,0 l/m 3,7 km/h (1 Bft) O-NO 67 0 min 0,0 UV-I 15,2 C 28,4 C 2,9 km/h (1 Bft)
07.06.2014 19:40 27,3 C 27,0 C 25,9 C 28,8 C 28,8 C 1,5 C 48 % 55 % 39 % 1016,2 hPa 0,0 l/m 3,4 km/h (1 Bft) O-NO 67 0 min 0,0 UV-I 15,3 C 28,8 C 3,2 km/h (1 Bft)
07.06.2014 19:45 27,2 C 27,0 C 25,8 C 29,1 C 29,1 C 1,9 C 49 % 56 % 50 % 1016,2 hPa 0,0 l/m 3,1 km/h (1 Bft) O-NO 67 0 min 0,0 UV-I 15,5 C 29,1 C 2,9 km/h (1 Bft)
07.06.2014 19:50 27,1 C 27,0 C 25,7 C 29,4 C 29,4 C 2,3 C 50 % 56 % 61 % 1016,2 hPa 0,0 l/m 2,7 km/h (1 Bft) O 90 5 min 0,0 UV-I 15,8 C 29,4 C 2,3 km/h (1 Bft)
07.06.2014 19:55 27,0 C 27,0 C 25,6 C 29,2 C 29,2 C 2,2 C 51 % 58 % 58 % 1016,2 hPa 0,0 l/m 1,8 km/h (1 Bft) O 90 5 min 0,0 UV-I 16,0 C 29,2 C 0,0 km/h (0 Bft)
07.06.2014 20:00 26,9 C 27,0 C 25,0 C 28,6 C 28,6 C 1,7 C 52 % 60 % 45 % 1016,0 hPa 0,0 l/m 0,6 km/h (0 Bft) O-SO 112 5 min 0,0 UV-I 16,2 C 28,6 C 2,4 km/h (1 Bft)
07.06.2014 20:05 26,6 C 27,0 C 24,9 C 27,9 C 27,9 C 1,3 C 52 % 61 % 34 % 1016,0 hPa 0,0 l/m 1,0 km/h (0 Bft) O-NO 67 0 min 0,0 UV-I 15,9 C 27,9 C 1,8 km/h (1 Bft)
07.06.2014 20:10 26,4 C 27,0 C 24,5 C 27,0 C 27,0 C 0,6 C 54 % 62 % 16 % 1016,0 hPa 0,0 l/m 1,0 km/h (0 Bft) O 90 0 min 0,0 UV-I 16,3 C 27,0 C 0,0 km/h (0 Bft)
07.06.2014 20:15 26,3 C 27,0 C 24,2 C 26,4 C 26,4 C 0,1 C 55 % 63 % 3 % 1016,0 hPa 0,0 l/m 0,5 km/h (0 Bft) O 90 0 min 0,0 UV-I 16,5 C 26,4 C 0,0 km/h (0 Bft)
07.06.2014 20:20 25,9 C 27,0 C 23,9 C 25,8 C 25,7 C 0,0 C 55 % 66 % 0 % 1016,2 hPa 0,0 l/m 0,2 km/h (0 Bft) O-NO 67 0 min 0,0 UV-I 16,2 C 25,7 C 0,0 km/h (0 Bft)
07.06.2014 20:25 25,9 C 27,0 C 23,7 C 25,7 C 25,3 C 0,0 C 56 % 67 % 0 % 1016,2 hPa 0,0 l/m 0,0 km/h (0 Bft) NO 45 0 min 0,0 UV-I 16,4 C 25,3 C 0,0 km/h (0 Bft)
07.06.2014 20:30 25,5 C 27,0 C 23,4 C 25,3 C 24,8 C 0,0 C 58 % 67 % 0 % 1016,2 hPa 0,0 l/m 0,0 km/h (0 Bft) O-NO 67 0 min 0,0 UV-I 16,6 C 24,8 C 0,0 km/h (0 Bft)
07.06.2014 20:35 25,2 C 27,0 C 23,2 C 25,0 C 24,5 C 0,0 C 59 % 69 % 0 % 1016,2 hPa 0,0 l/m 0,0 km/h (0 Bft) O-NO 67 0 min 0,0 UV-I 16,6 C 24,5 C 0,0 km/h (0 Bft)
07.06.2014 20:40 24,9 C 27,0 C 22,9 C 24,6 C 24,1 C 0,0 C 60 % 70 % 0 % 1016,2 hPa 0,0 l/m 0,0 km/h (0 Bft) O-NO 67 0 min 0,0 UV-I 16,6 C 24,1 C 0,0 km/h (0 Bft)
07.06.2014 20:45 24,7 C 27,0 C 22,8 C 24,4 C 23,9 C 0,0 C 60 % 70 % 0 % 1016,2 hPa 0,0 l/m 0,0 km/h (0 Bft) NO 45 0 min 0,0 UV-I 16,4 C 23,9 C 0,0 km/h (0 Bft)
07.06.2014 20:50 24,5 C 27,0 C 22,5 C 24,2 C 23,5 C 0,0 C 60 % 70 % 0 % 1016,2 hPa 0,0 l/m 0,0 km/h (0 Bft) O-NO 67 0 min 0,0 UV-I 16,2 C 23,5 C 0,0 km/h (0 Bft)
07.06.2014 20:55 24,3 C 27,0 C 22,3 C 24,0 C 23,3 C 0,0 C 61 % 71 % 0 % 1016,2 hPa 0,0 l/m 0,0 km/h (0 Bft) O-NO 67 0 min 0,0 UV-I 16,3 C 23,3 C 0,0 km/h (0 Bft)
07.06.2014 21:00 23,9 C 27,1 C 22,1 C 23,5 C 22,8 C 0,0 C 62 % 72 % 0 % 1016,4 hPa 0,0 l/m 0,0 km/h (0 Bft) O-NO 67 0 min 0,0 UV-I 16,2 C 22,8 C 0,0 km/h (0 Bft)
07.06.2014 21:05 23,6 C 27,1 C 21,9 C 23,3 C 22,6 C 0,0 C 65 % 73 % 0 % 1016,4 hPa 0,0 l/m 0,0 km/h (0 Bft) O-NO 67 0 min 0,0 UV-I 16,6 C 22,6 C 0,0 km/h (0 Bft)
07.06.2014 21:10 23,3 C 27,1 C 21,7 C 22,9 C 22,2 C 0,0 C 66 % 74 % 0 % 1016,4 hPa 0,0 l/m 0,0 km/h (0 Bft) O-NO 67 0 min 0,0 UV-I 16,6 C 22,2 C 0,0 km/h (0 Bft)
07.06.2014 21:15 23,1 C 27,1 C 21,7 C 22,7 C 21,9 C 0,0 C 67 % 74 % 0 % 1016,4 hPa 0,0 l/m 0,0 km/h (0 Bft) O-NO 67 0 min 0,0 UV-I 16,6 C 21,9 C 0,0 km/h (0 Bft)
07.06.2014 21:20 22,8 C 27,1 C 21,3 C 22,4 C 21,5 C 0,0 C 68 % 75 % 0 % 1016,2 hPa 0,0 l/m 0,0 km/h (0 Bft) O 90 0 min 0,0 UV-I 16,6 C 21,5 C 0,0 km/h (0 Bft)
07.06.2014 21:25 22,7 C 27,1 C 21,3 C 22,2 C 21,2 C 0,0 C 68 % 75 % 0 % 1016,2 hPa 0,0 l/m 0,0 km/h (0 Bft) NO 45 0 min 0,0 UV-I 16,5 C 21,2 C 0,0 km/h (0 Bft)
07.06.2014 21:30 22,4 C 27,1 C 21,1 C 21,9 C 20,9 C 0,0 C 69 % 75 % 0 % 1016,2 hPa 0,0 l/m 0,0 km/h (0 Bft) SO 135 0 min 0,0 UV-I 16,4 C 20,9 C 0,0 km/h (0 Bft)
07.06.2014 21:35 22,3 C 27,1 C 20,8 C 21,8 C 20,7 C 0,0 C 69 % 76 % 0 % 1016,2 hPa 0,0 l/m 0,0 km/h (0 Bft) S 180 0 min 0,0 UV-I 16,3 C 20,7 C 0,0 km/h (0 Bft)
07.06.2014 21:40 22,1 C 27,1 C 20,7 C 21,6 C 20,5 C 0,0 C 70 % 76 % 0 % 1016,5 hPa 0,0 l/m 0,0 km/h (0 Bft) SO 135 0 min 0,0 UV-I 16,4 C 20,5 C 0,0 km/h (0 Bft)
07.06.2014 21:45 21,9 C 27,1 C 20,7 C 21,4 C 20,4 C 0,0 C 71 % 77 % 0 % 1016,5 hPa 0,0 l/m 0,0 km/h (0 Bft) O-NO 67 0 min 0,0 UV-I 16,4 C 20,4 C 0,0 km/h (0 Bft)
07.06.2014 21:50 21,6 C 27,1 C 20,4 C 21,1 C 20,2 C 0,0 C 72 % 77 % 0 % 1016,5 hPa 0,0 l/m 0,0 km/h (0 Bft) O-NO 67 0 min 0,0 UV-I 16,3 C 20,2 C 0,0 km/h (0 Bft)
07.06.2014 21:55 21,5 C 27,1 C 20,4 C 21,0 C 20,1 C 0,0 C 72 % 77 % 0 % 1016,5 hPa 0,0 l/m 0,0 km/h (0 Bft) SW 225 0 min 0,0 UV-I 16,2 C 20,1 C 0,0 km/h (0 Bft)
07.06.2014 22:00 21,2 C 27,1 C 20,3 C 20,7 C 19,8 C 0,0 C 74 % 78 % 0 % 1016,6 hPa 0,0 l/m 0,0 km/h (0 Bft) N-NW 337 0 min 0,0 UV-I 16,4 C 19,8 C 0,0 km/h (0 Bft)
07.06.2014 22:05 21,1 C 27,1 C 20,1 C 20,6 C 19,6 C 0,0 C 74 % 79 % 0 % 1016,6 hPa 0,0 l/m 0,0 km/h (0 Bft) NW 315 0 min 0,0 UV-I 16,3 C 19,6 C 0,0 km/h (0 Bft)
07.06.2014 22:10 20,9 C 27,1 C 20,0 C 20,4 C 19,5 C 0,0 C 75 % 79 % 0 % 1016,6 hPa 0,0 l/m 0,0 km/h (0 Bft) N-NO 22 0 min 0,0 UV-I 16,3 C 19,5 C 0,0 km/h (0 Bft)
07.06.2014 22:15 20,9 C 27,2 C 20,0 C 20,4 C 19,5 C 0,0 C 75 % 79 % 0 % 1016,6 hPa 0,0 l/m 0,0 km/h (0 Bft) NO 45 0 min 0,0 UV-I 16,3 C 19,5 C 0,0 km/h (0 Bft)
07.06.2014 22:20 20,7 C 27,2 C 19,9 C 20,3 C 19,5 C 0,0 C 76 % 80 % 0 % 1016,5 hPa 0,0 l/m 0,0 km/h (0 Bft) S-SW 202 0 min 0,0 UV-I 16,3 C 19,5 C 0,0 km/h (0 Bft)
07.06.2014 22:25 20,5 C 27,2 C 19,7 C 20,1 C 19,4 C 0,0 C 77 % 80 % 0 % 1016,5 hPa 0,0 l/m 0,0 km/h (0 Bft) O-NO 67 0 min 0,0 UV-I 16,3 C 19,4 C 0,0 km/h (0 Bft)
07.06.2014 22:30 20,5 C 27,2 C 19,6 C 20,1 C 19,4 C 0,0 C 77 % 80 % 0 % 1016,5 hPa 0,0 l/m 0,0 km/h (0 Bft) O-NO 67 0 min 0,0 UV-I 16,3 C 19,4 C 0,0 km/h (0 Bft)
07.06.2014 22:35 20,3 C 27,2 C 19,5 C 20,0 C 19,3 C 0,0 C 77 % 81 % 0 % 1016,5 hPa 0,0 l/m 0,0 km/h (0 Bft) W-SW 247 0 min 0,0 UV-I 16,1 C 19,3 C 0,0 km/h (0 Bft)
07.06.2014 22:40 20,3 C 27,2 C 19,4 C 19,9 C 19,1 C 0,0 C 78 % 81 % 0 % 1016,5 hPa 0,0 l/m 0,0 km/h (0 Bft) W-SW 247 0 min 0,0 UV-I 16,3 C 19,1 C 0,0 km/h (0 Bft)
07.06.2014 22:45 20,1 C 27,2 C 19,3 C 19,7 C 18,9 C 0,0 C 78 % 81 % 0 % 1016,5 hPa 0,0 l/m 0,0 km/h (0 Bft) W-SW 247 0 min 0,0 UV-I 16,1 C 18,9 C 0,0 km/h (0 Bft)
07.06.2014 22:50 20,0 C 27,2 C 19,3 C 19,6 C 18,7 C 0,0 C 78 % 81 % 0 % 1016,5 hPa 0,0 l/m 0,0 km/h (0 Bft) W-SW 247 0 min 0,0 UV-I 16,0 C 18,7 C 0,0 km/h (0 Bft)
07.06.2014 22:55 19,9 C 27,2 C 19,1 C 19,5 C 18,6 C 0,0 C 79 % 81 % 0 % 1016,5 hPa 0,0 l/m 0,0 km/h (0 Bft) N-NW 337 0 min 0,0 UV-I 16,1 C 18,6 C 0,0 km/h (0 Bft)
07.06.2014 23:00 19,9 C 27,2 C 19,1 C 19,5 C 18,6 C 0,0 C 79 % 81 % 0 % 1016,7 hPa 0,0 l/m 0,0 km/h (0 Bft) NO 45 0 min 0,0 UV-I 16,1 C 18,6 C 0,0 km/h (0 Bft)
07.06.2014 23:05 19,7 C 27,2 C 19,1 C 19,3 C 18,6 C 0,0 C 79 % 82 % 0 % 1016,7 hPa 0,0 l/m 0,0 km/h (0 Bft) W-SW 247 0 min 0,0 UV-I 16,0 C 18,6 C 0,0 km/h (0 Bft)
07.06.2014 23:10 19,6 C 27,2 C 19,1 C 19,2 C 18,5 C 0,0 C 80 % 82 % 0 % 1016,7 hPa 0,0 l/m 0,0 km/h (0 Bft) S-SW 202 0 min 0,0 UV-I 16,1 C 18,5 C 0,0 km/h (0 Bft)
07.06.2014 23:15 19,5 C 27,2 C 18,9 C 19,1 C 18,4 C 0,0 C 80 % 82 % 0 % 1016,7 hPa 0,0 l/m 0,0 km/h (0 Bft) W-SW 247 0 min 0,0 UV-I 16,0 C 18,4 C 0,0 km/h (0 Bft)
07.06.2014 23:20 19,4 C 27,2 C 18,8 C 19,0 C 18,2 C 0,0 C 81 % 82 % 0 % 1016,7 hPa 0,0 l/m 0,0 km/h (0 Bft) O-NO 67 0 min 0,0 UV-I 16,1 C 18,2 C 0,0 km/h (0 Bft)
07.06.2014 23:25 19,3 C 27,2 C 18,7 C 18,9 C 18,2 C 0,0 C 81 % 82 % 0 % 1016,7 hPa 0,0 l/m 0,0 km/h (0 Bft) NW 315 0 min 0,0 UV-I 16,0 C 18,2 C 0,0 km/h (0 Bft)
07.06.2014 23:30 19,2 C 27,1 C 18,7 C 18,8 C 18,0 C 0,0 C 81 % 82 % 0 % 1016,7 hPa 0,0 l/m 0,0 km/h (0 Bft) W 270 0 min 0,0 UV-I 15,9 C 18,0 C 0,0 km/h (0 Bft)
07.06.2014 23:35 19,0 C 27,1 C 18,5 C 18,6 C 17,9 C 0,0 C 81 % 82 % 0 % 1016,7 hPa 0,0 l/m 0,0 km/h (0 Bft) O-NO 67 0 min 0,0 UV-I 15,7 C 17,9 C 0,0 km/h (0 Bft)
07.06.2014 23:40 18,9 C 27,1 C 18,5 C 18,6 C 17,9 C 0,0 C 81 % 83 % 0 % 1016,5 hPa 0,0 l/m 0,0 km/h (0 Bft) O-NO 67 0 min 0,0 UV-I 15,6 C 17,9 C 0,0 km/h (0 Bft)
07.06.2014 23:45 18,8 C 27,1 C 18,4 C 18,5 C 17,8 C 0,0 C 82 % 83 % 0 % 1016,5 hPa 0,0 l/m 0,0 km/h (0 Bft) NW 315 0 min 0,0 UV-I 15,7 C 17,8 C 0,0 km/h (0 Bft)
07.06.2014 23:50 18,8 C 27,1 C 18,3 C 18,5 C 17,8 C 0,0 C 82 % 83 % 0 % 1016,5 hPa 0,0 l/m 0,0 km/h (0 Bft) W-NW 292 0 min 0,0 UV-I 15,7 C 17,8 C 0,0 km/h (0 Bft)
07.06.2014 23:55 18,7 C 27,1 C 18,3 C 18,4 C 17,7 C 0,0 C 82 % 83 % 0 % 1016,5 hPa 0,0 l/m 0,0 km/h (0 Bft) W-SW 247 0 min 0,0 UV-I 15,6 C 17,7 C 0,0 km/h (0 Bft)
_ Min-Zeit 06:00 08:40 06:10 05:40 05:40 00:00 16:20 16:20 00:00 18:40 - 00:00 - - - 00:00 06:00 05:40 00:00
Minimum _ 9,4 C 24,5 C 11,0 C 9,7 C 9,7 C 0,0 C 33 % 49 % 0 % 1015,7 hPa - 0,0 km/h (0 Bft) - - - 0,0 UV-I 7,2 C 9,7 C 0,0 km/h (0 Bft)
_ Max-Zeit 16:05 22:15 16:30 17:40 17:40 07:40 07:20 06:45 07:00 12:00 00:00 19:00 - - 07:00 07:15 21:15 17:40 12:40
Maximum _ 32,4 C 27,2 C 27,1 C 37,4 C 37,4 C 12,6 C 90 % 86 % 100 % 1017,4 hPa 0,0 l/m 4,2 km/h
O-SO (1 Bft)
- - 5 min 1,4 UV-I 16,6 C 37,4 C 9,8 km/h
W-SW (2 Bft)
Durchschnitt _ 21,3 C 25,7 C 19,3 C 24,8 C 24,6 C 3,6 C 63 % 71 % 53 % 1016,4 hPa #0,0 l/m 0,9 km/h (0 Bft) W-SW - #11:35 h 0,1 UV-I 13,0 C 24,6 C 1,3 km/h (1 Bft)
2014 www.wetterstation-wechselburg.de